Regional Weather Roundup
Issued by NWS Memphis, TN

Home | Current Version | Previous Version | Text Only | Print | Product List | Glossary On
Versions: 1 2 3 4 5 6 7 8 9 10 11 12 13 14 15 16 17 18 19 20 21 22 23 24 25 26 27 28 29 30 31 32 33 34 35 36 37 38 39 40 41 42 43 44 45 46 47 48 49 50
000
ASUS44 KMEG 301910
RWRMEG
MEMPHIS CWA HOURLY WEATHER ROUNDUP
NATIONAL WEATHER SERVICE MEMPHIS TN
200 PM CDT WED JUL 30 2014

...WEST TENNESSEE...

CITY           SKY/WX    TMP DP  RH WIND       PRES   REMARKS
MEMPHIS INTL   MOSUNNY   83  57  41 VRB3      30.10F
NWS MEMPHIS      N/A     82 N/A N/A MISG        N/A
JACKSON        SUNNY     82  56  40 W6        30.11S
LEXINGTON      MOSUNNY   81  54  39 CALM      30.10F
SAVANNAH       PTSUNNY   82  58  43 NE5       30.11S
DYERSBURG      MOSUNNY   82  54  36 S3        30.10F
UNION CITY     MOSUNNY   81  57  44 SW3       30.10S
PARIS          PTSUNNY   79  57  46 VRB5      30.11F


...EASTERN ARKANSAS...

CITY           SKY/WX    TMP DP  RH WIND       PRES   REMARKS
JONESBORO      PTSUNNY   79  59  50 S10       30.09F
WEST MEMPHIS   SUNNY     81  59  47 VRB3      30.09F
BATESVILLE     CLOUDY    73  61  64 SW5       30.11S
NEWPORT        CLOUDY    82  62  50 S6        30.10F
WALNUT RIDGE   CLOUDY    79  59  50 S9        30.09S
BLYTHEVILLE    PTSUNNY   80  55  42 SW5       30.10S
SEARCY         CLOUDY    78  65  64 W3        30.11F
STUTTGART      MOSUNNY   84  63  48 MISG      30.11S
PINE BLUFF     CLOUDY    78  63  59 SW7       30.11S
MONTICELLO     PTSUNNY   80  60  50 E3        30.10F


...NORTH MISSISSIPPI...

CITY           SKY/WX    TMP DP  RH WIND       PRES   REMARKS
TUPELO         MOSUNNY   82  55  39 MISG      30.09F
OLIVE BRANCH   MOSUNNY   81  59  47 S6        30.11S
CLARKSDALE     SUNNY     81  59  47 NW3       30.11F
CORINTH        MOSUNNY   81  54  39 CALM      30.10S
GRENADA        SUNNY     81  55  41 E5        30.09F
GREENWOOD      SUNNY     82  57  42 E5        30.09F
COLUMBUS       MOSUNNY   81  56  42 NE9       30.08F
STARKVILLE     FAIR      81  54  39 NW3       30.09S
GOLDEN TRIANGL MOSUNNY   82  57  42 NW7       30.09F


...SOUTHEAST MISSOURI...

CITY           SKY/WX    TMP DP  RH WIND       PRES   REMARKS
WEST PLAINS    LGT RAIN  72  64  76 SW6       30.13S
POPLAR BLUFF   CLOUDY    77  58  51 S7        30.09S
CAPE GIRARDEAU CLOUDY    76  59  55 SW6       30.10F


...NORTHWEST ALABAMA...

CITY           SKY/WX    TMP DP  RH WIND       PRES   REMARKS
MUSCLE SHOALS  PTSUNNY   80  55  42 N6        30.10F


...MIDDLE TENNESSEE...

CITY           SKY/WX    TMP DP  RH WIND       PRES   REMARKS
NASHVILLE      PTSUNNY   82  57  42 NW6       30.10F
CLARKSVILLE    PTSUNNY   80  54  40 VRB3      30.10F
DICKSON        PTSUNNY   79  52  38 CALM      30.12S
COLUMBIA       MOSUNNY   81  61  50 VRB7      30.09F
LEWISBURG      MOSUNNY   79  57  46 VRB5      30.10F


...WESTERN KENTUCKY...

CITY           SKY/WX    TMP DP  RH WIND       PRES   REMARKS
PADUCAH        CLOUDY    80  58  46 W7        30.10S
FORT CAMPBELL  PTSUNNY   81  55  40 SW8       30.10F


...CENTRAL ARKANSAS...

CITY           SKY/WX    TMP DP  RH WIND       PRES   REMARKS
LITTLE ROCK    CLOUDY    78  58  49 SW6       30.11S


SKY/WX REPORTED AS FAIR MEANS FEW OR NO CLOUDS BELOW
12 THOUSAND FEET.



USA.gov is the U.S. government's official web portal to all federal, state and local government web resources and services.